,,,PA_Meas_PMT16A,,PR_Meas_QMR101_102,,RH_Meas_QMH101,,SR_Meas_QMS101,,TA_Meas_QMH101,,GenWind,,GenWind,
date,time,status,PA,status,PR,status,RH,status,SR,status,TA,status,DirAvg,status,SpdAvg,
2012-07-29, 00:00:04,VALID,1010.45,VALID,0,VALID,82.2819,VALID,0,VALID,26.1286,VALID,198,VALID,0.452734,
2012-07-29, 00:01:04,VALID,1010.42,VALID,0,VALID,82.4649,VALID,0,VALID,26.1306,VALID,198,VALID,0.477734,
2012-07-29, 00:02:04,VALID,1010.45,VALID,0,VALID,82.442,VALID,0,VALID,26.1111,VALID,194,VALID,0.946484,
2012-07-29, 00:03:04,VALID,1010.42,VALID,0,VALID,82.4268,VALID,0,VALID,26.1111,VALID,181,VALID,0.578125,
2012-07-29, 00:04:04,VALID,1010.36,VALID,0,VALID,82.5945,VALID,0,VALID,26.0506,VALID,180,VALID,0.589844,
2012-07-29, 00:05:04,VALID,1010.34,VALID,0,VALID,82.6937,VALID,0,VALID,26.0506,VALID,180,VALID,0.710547,
2012-07-29, 00:06:04,VALID,1010.27,VALID,0,VALID,82.8843,VALID,0,VALID,26.0526,VALID,180,VALID,0.496484,
2012-07-29, 00:07:04,VALID,1010.31,VALID,0,VALID,83.0826,VALID,0,VALID,26.0331,VALID,197,VALID,0.624219,
2012-07-29, 00:08:04,VALID,1010.3,VALID,0,VALID,83.0292,VALID,0,VALID,25.9941,VALID,179,VALID,0.828125,
2012-07-29, 00:09:04,VALID,1010.29,VALID,0,VALID,83.2961,VALID,0,VALID,25.9941,VALID,175,VALID,0.0808594,
2012-07-29, 00:10:04,VALID,1010.31,VALID,0,VALID,83.4867,VALID,0,VALID,25.9551,VALID,175,VALID,0.172266,
2012-07-29, 00:11:04,VALID,1010.31,VALID,0,VALID,83.4562,VALID,0,VALID,25.9551,VALID,175,VALID,0.533594,
2012-07-29, 00:12:04,VALID,1010.32,VALID,0,VALID,83.5401,VALID,0,VALID,25.9161,VALID,176,VALID,0.623828,
2012-07-29, 00:13:04,VALID,1010.33,VALID,0,VALID,83.6545,VALID,0,VALID,25.8966,VALID,176,VALID,0.427344,
2012-07-29, 00:14:04,VALID,1010.33,VALID,0,VALID,83.7308,VALID,0,VALID,25.8966,VALID,176,VALID,0.157422,
2012-07-29, 00:15:04,VALID,1010.27,VALID,0,VALID,83.7994,VALID,0.112112,VALID,25.8751,VALID,176,VALID,0.424609,
2012-07-29, 00:16:04,VALID,1010.25,VALID,0,VALID,83.9519,VALID,0.112112,VALID,25.8556,VALID,175,VALID,0.420703,
2012-07-29, 00:17:04,VALID,1010.22,VALID,0,VALID,84.1044,VALID,0,VALID,25.8361,VALID,175,VALID,0.311328,
2012-07-29, 00:18:04,VALID,1010.23,VALID,0,VALID,83.9748,VALID,0.112112,VALID,25.8361,VALID,196,VALID,0.861719,
2012-07-29, 00:19:04,VALID,1010.2,VALID,0,VALID,84.2112,VALID,0,VALID,25.8166,VALID,171,VALID,0.366797,
2012-07-29, 00:20:04,VALID,1010.21,VALID,0,VALID,84.4247,VALID,0.112112,VALID,25.7971,VALID,171,VALID,0.441406,
2012-07-29, 00:21:04,VALID,1010.23,VALID,0,VALID,84.5238,VALID,0,VALID,25.7581,VALID,171,VALID,0.34375,
2012-07-29, 00:22:04,VALID,1010.23,VALID,0,VALID,84.7602,VALID,0.112112,VALID,25.7387,VALID,171,VALID,0.323047,
2012-07-29, 00:23:04,VALID,1010.24,VALID,0,VALID,85.0805,VALID,0.112112,VALID,25.6782,VALID,171,VALID,0,
2012-07-29, 00:24:04,VALID,1010.21,VALID,0,VALID,85.9041,VALID,0.112112,VALID,25.6802,VALID,170,VALID,0.00195313,
2012-07-29, 00:25:04,VALID,1010.22,VALID,0,VALID,86.2778,VALID,0.112112,VALID,25.6392,VALID,170,VALID,0.0347656,
2012-07-29, 00:26:04,VALID,1010.2,VALID,0,VALID,88.1003,VALID,0.112112,VALID,25.6431,VALID,171,VALID,0.492188,
2012-07-29, 00:27:04,VALID,1010.2,VALID,0,VALID,90.1288,VALID,0.112112,VALID,25.6022,VALID,171,VALID,0,
2012-07-29, 00:28:04,VALID,1010.19,VALID,0,VALID,90.7236,VALID,0.112112,VALID,25.5437,VALID,170,VALID,0.381641,
2012-07-29, 00:29:04,VALID,1010.19,VALID,0,VALID,91.4099,VALID,0.112112,VALID,25.4852,VALID,170,VALID,0.384766,
2012-07-29, 00:30:04,VALID,1010.18,VALID,0,VALID,91.898,VALID,0,VALID,25.4677,VALID,170,VALID,0.390625,
2012-07-29, 00:31:04,VALID,1010.18,VALID,0,VALID,92.6376,VALID,0,VALID,25.4092,VALID,166,VALID,0.520703,
2012-07-29, 00:32:04,VALID,1010.18,VALID,0,VALID,93.1715,VALID,0,VALID,25.3507,VALID,127,VALID,0.111719,
2012-07-29, 00:33:04,VALID,1010.19,VALID,0,VALID,93.5604,VALID,0,VALID,25.2922,VALID,24,VALID,0.641016,
2012-07-29, 00:34:04,VALID,1010.18,VALID,0,VALID,93.8578,VALID,0,VALID,25.2727,VALID,23,VALID,0.498437,
2012-07-29, 00:35:04,VALID,1010.16,VALID,0,VALID,94.4678,VALID,0,VALID,25.2337,VALID,22,VALID,0.751562,
2012-07-29, 00:36:04,VALID,1010.18,VALID,0,VALID,95.0474,VALID,0,VALID,25.1947,VALID,22,VALID,0.464453,
2012-07-29, 00:37:04,VALID,1010.15,VALID,0,VALID,95.8633,VALID,0,VALID,25.1343,VALID,22,VALID,0.664844,
2012-07-29, 00:38:04,VALID,1010.13,VALID,0,VALID,96.42,VALID,0,VALID,25.0954,VALID,353,VALID,0.673828,
2012-07-29, 00:39:04,VALID,1010.15,VALID,0,VALID,96.7022,VALID,0,VALID,25.0973,VALID,353,VALID,0.359766,
2012-07-29, 00:40:04,VALID,1010.15,VALID,0,VALID,96.7174,VALID,0,VALID,25.0778,VALID,353,VALID,0,
2012-07-29, 00:41:04,VALID,1010.13,VALID,0,VALID,97.0835,VALID,0,VALID,25.0583,VALID,353,VALID,0.155078,
2012-07-29, 00:42:04,VALID,1010.13,VALID,0,VALID,97.4037,VALID,0,VALID,25.0778,VALID,353,VALID,0.609375,
2012-07-29, 00:43:04,VALID,1010.16,VALID,0,VALID,97.7545,VALID,0,VALID,25.0388,VALID,353,VALID,0.305078,
2012-07-29, 00:44:04,VALID,1010.17,VALID,0,VALID,98.1663,VALID,0,VALID,25.0193,VALID,353,VALID,0.267188,
2012-07-29, 00:45:04,VALID,1010.17,VALID,0,VALID,98.7688,VALID,0,VALID,24.9589,VALID,353,VALID,0.402344,
2012-07-29, 00:46:04,VALID,1010.19,VALID,0,VALID,99.2492,VALID,0,VALID,24.9413,VALID,353,VALID,0.377344,
2012-07-29, 00:47:04,VALID,1010.19,VALID,0,VALID,99.7296,VALID,0,VALID,24.9004,VALID,353,VALID,0.494922,
2012-07-29, 00:48:04,VALID,1010.22,VALID,0,VALID,100.187,VALID,0,VALID,24.8633,VALID,353,VALID,0.228906,
2012-07-29, 00:49:04,VALID,1010.2,VALID,0,VALID,100.5,VALID,0,VALID,24.8438,VALID,353,VALID,0,
2012-07-29, 00:50:04,VALID,1010.22,VALID,0,VALID,100.812,VALID,0,VALID,24.8049,VALID,353,VALID,0,
2012-07-29, 00:51:04,VALID,1010.17,VALID,0,VALID,101.095,VALID,0,VALID,24.764,VALID,353,VALID,0,
2012-07-29, 00:52:04,VALID,1010.18,VALID,0,VALID,101.301,VALID,0,VALID,24.7464,VALID,353,VALID,0,
2012-07-29, 00:53:04,VALID,1010.17,VALID,0,VALID,101.209,VALID,0,VALID,24.7269,VALID,130,VALID,0.816016,
2012-07-29, 00:54:04,VALID,1010.15,VALID,0,VALID,100.736,VALID,0,VALID,24.803,VALID,169,VALID,0.380078,
2012-07-29, 00:55:04,VALID,1010.14,VALID,0,VALID,100.035,VALID,0,VALID,24.8633,VALID,168,VALID,0.546484,
2012-07-29, 00:56:04,VALID,1010.13,VALID,0,VALID,99.8745,VALID,0,VALID,24.9023,VALID,167,VALID,0.287891,
2012-07-29, 00:57:04,VALID,1010.12,VALID,0,VALID,99.7372,VALID,0,VALID,24.9218,VALID,167,VALID,0.178125,
2012-07-29, 00:58:04,VALID,1010.1,VALID,0,VALID,99.6991,VALID,0,VALID,24.9237,VALID,167,VALID,0,
2012-07-29, 00:59:04,VALID,1010.09,VALID,0,VALID,99.6457,VALID,0,VALID,24.9023,VALID,167,VALID,0.152344,
2012-07-29, 01:00:04,VALID,1010.07,VALID,0,VALID,99.4856,VALID,0,VALID,24.9218,VALID,167,VALID,0.253516,
2012-07-29, 01:01:04,VALID,1010.04,VALID,0,VALID,98.9137,VALID,0,VALID,24.9023,VALID,167,VALID,0.343359,
2012-07-29, 01:02:04,VALID,1010.04,VALID,0,VALID,97.114,VALID,0,VALID,24.9413,VALID,129,VALID,0.0503906,
2012-07-29, 01:03:04,VALID,1010.03,VALID,0,VALID,94.811,VALID,0,VALID,24.9803,VALID,129,VALID,0.315234,
2012-07-29, 01:04:04,VALID,1010.01,VALID,0,VALID,92.9046,VALID,0,VALID,25.0193,VALID,128,VALID,0.192578,
2012-07-29, 01:05:04,VALID,1010.01,VALID,0,VALID,89.2671,VALID,0,VALID,25.1167,VALID,128,VALID,0.597656,
2012-07-29, 01:06:04,VALID,1010.03,VALID,0,VALID,86.6286,VALID,0,VALID,25.1947,VALID,117,VALID,0.762109,
2012-07-29, 01:07:04,VALID,1010.01,VALID,0,VALID,85.3551,VALID,0,VALID,25.2727,VALID,117,VALID,0.603516,
2012-07-29, 01:08:04,VALID,1010.05,VALID,0,VALID,84.6687,VALID,0,VALID,25.2922,VALID,99,VALID,0.5125,
2012-07-29, 01:09:04,VALID,1010.08,VALID,0,VALID,84.9585,VALID,0,VALID,25.3312,VALID,55,VALID,0.664063,
2012-07-29, 01:10:04,VALID,1010.06,VALID,0,VALID,85.0348,VALID,0,VALID,25.3117,VALID,54,VALID,0.73125,
2012-07-29, 01:11:04,VALID,1010.1,VALID,0,VALID,85.4008,VALID,0,VALID,25.2727,VALID,54,VALID,0.370313,
2012-07-29, 01:12:04,VALID,1010.1,VALID,0,VALID,86.6514,VALID,0,VALID,25.2142,VALID,54,VALID,0.00195313,
2012-07-29, 01:13:04,VALID,1010.08,VALID,0,VALID,87.7953,VALID,0,VALID,25.1576,VALID,29,VALID,0.713672,
2012-07-29, 01:14:04,VALID,1010.13,VALID,0,VALID,88.2376,VALID,0,VALID,25.0778,VALID,30,VALID,0.792969,
2012-07-29, 01:15:04,VALID,1010.14,VALID,0,VALID,90.5787,VALID,0,VALID,25.0388,VALID,30,VALID,0.539453,
2012-07-29, 01:16:04,VALID,1010.15,VALID,0,VALID,92.2792,VALID,0,VALID,24.9608,VALID,30,VALID,0.258203,
2012-07-29, 01:17:04,VALID,1010.14,VALID,0,VALID,93.629,VALID,0,VALID,24.9218,VALID,30,VALID,0.308984,
2012-07-29, 01:18:04,VALID,1010.13,VALID,0,VALID,94.4831,VALID,0,VALID,24.8633,VALID,30,VALID,0.387109,
2012-07-29, 01:19:04,VALID,1010.11,VALID,0,VALID,95.9167,VALID,0,VALID,24.8438,VALID,30,VALID,0.348437,
2012-07-29, 01:20:04,VALID,1010.08,VALID,0,VALID,97.5486,VALID,0,VALID,24.8049,VALID,30,VALID,0.265234,
2012-07-29, 01:21:04,VALID,1010.07,VALID,0,VALID,98.4942,VALID,0,VALID,24.7854,VALID,30,VALID,0.0644531,
2012-07-29, 01:22:04,VALID,1010.06,VALID,0,VALID,98.5171,VALID,0,VALID,24.7659,VALID,30,VALID,0.134766,
2012-07-29, 01:23:04,VALID,1010.04,VALID,0,VALID,98.6086,VALID,0,VALID,24.7659,VALID,30,VALID,0.212891,
2012-07-29, 01:24:04,VALID,1010.04,VALID,0,VALID,98.2578,VALID,0,VALID,24.7659,VALID,30,VALID,0.109375,
2012-07-29, 01:25:04,VALID,1010.02,VALID,0,VALID,98.5629,VALID,0,VALID,24.7659,VALID,30,VALID,0,
2012-07-29, 01:26:04,VALID,1010.04,VALID,0,VALID,98.9213,VALID,0,VALID,24.7445,VALID,30,VALID,0,
2012-07-29, 01:27:04,VALID,1010,VALID,0,VALID,99.0357,VALID,0,VALID,24.725,VALID,30,VALID,0.000390625,
2012-07-29, 01:28:04,VALID,1009.99,VALID,0,VALID,99.478,VALID,0,VALID,24.7464,VALID,30,VALID,0,
2012-07-29, 01:29:04,VALID,1010.02,VALID,0,VALID,99.3254,VALID,0,VALID,24.7074,VALID,30,VALID,0,
2012-07-29, 01:30:04,VALID,1009.99,VALID,0,VALID,99.7296,VALID,0,VALID,24.686,VALID,30,VALID,0.472656,
2012-07-29, 01:31:04,VALID,1010.02,VALID,0,VALID,100.469,VALID,0,VALID,24.6684,VALID,30,VALID,0.456641,
2012-07-29, 01:32:04,VALID,1009.99,VALID,0,VALID,100.866,VALID,0,VALID,24.6489,VALID,30,VALID,0.536328,
2012-07-29, 01:33:04,VALID,1009.95,VALID,0,VALID,101.072,VALID,0,VALID,24.6294,VALID,30,VALID,0.51875,
2012-07-29, 01:34:04,VALID,1009.96,VALID,0,VALID,101.316,VALID,0,VALID,24.5886,VALID,30,VALID,0,
2012-07-29, 01:35:04,VALID,1009.93,VALID,0,VALID,101.491,VALID,0,VALID,24.5905,VALID,30,VALID,0,
2012-07-29, 01:36:04,VALID,1009.89,VALID,0,VALID,101.697,VALID,0,VALID,24.571,VALID,30,VALID,0,
2012-07-29, 01:37:04,VALID,1009.9,VALID,0,VALID,101.796,VALID,0,VALID,24.5515,VALID,30,VALID,0,
2012-07-29, 01:38:04,VALID,1009.89,VALID,0,VALID,101.811,VALID,0,VALID,24.5125,VALID,30,VALID,0,
2012-07-29, 01:39:04,VALID,1009.86,VALID,0,VALID,102.002,VALID,0,VALID,24.493,VALID,30,VALID,0.433594,
2012-07-29, 01:40:04,VALID,1009.84,VALID,0,VALID,102.231,VALID,0,VALID,24.454,VALID,30,VALID,0,
2012-07-29, 01:41:04,VALID,1009.84,VALID,0,VALID,102.46,VALID,0,VALID,24.4345,VALID,30,VALID,0,
2012-07-29, 01:42:04,VALID,1009.86,VALID,0,VALID,102.589,VALID,0,VALID,24.415,VALID,30,VALID,0,
2012-07-29, 01:43:04,VALID,1009.83,VALID,0,VALID,102.696,VALID,0,VALID,24.3956,VALID,30,VALID,0,
2012-07-29, 01:44:04,VALID,1009.86,VALID,0,VALID,102.795,VALID,0,VALID,24.3956,VALID,30,VALID,0,
2012-07-29, 01:45:04,VALID,1009.86,VALID,0,VALID,102.91,VALID,0,VALID,24.3547,VALID,30,VALID,0,
2012-07-29, 01:46:04,VALID,1009.86,VALID,0,VALID,103.07,VALID,0,VALID,24.3352,VALID,30,VALID,0,
2012-07-29, 01:47:04,VALID,1009.87,VALID,0,VALID,103.207,VALID,0,VALID,24.3176,VALID,30,VALID,0.0925781,
2012-07-29, 01:48:04,VALID,1009.85,VALID,0,VALID,103.337,VALID,0,VALID,24.2981,VALID,30,VALID,0,
2012-07-29, 01:49:04,VALID,1009.81,VALID,0,VALID,103.405,VALID,0,VALID,24.2786,VALID,30,VALID,0,
2012-07-29, 01:50:04,VALID,1009.82,VALID,0,VALID,103.52,VALID,0,VALID,24.2591,VALID,30,VALID,0,
2012-07-29, 01:51:04,VALID,1009.84,VALID,0,VALID,103.626,VALID,0,VALID,24.2396,VALID,30,VALID,0,
2012-07-29, 01:52:04,VALID,1009.8,VALID,0,VALID,103.657,VALID,0,VALID,24.2202,VALID,30,VALID,0,
2012-07-29, 01:53:04,VALID,1009.84,VALID,0,VALID,103.802,VALID,0,VALID,24.2007,VALID,30,VALID,0,
2012-07-29, 01:54:04,VALID,1009.8,VALID,0,VALID,103.863,VALID,0,VALID,24.1617,VALID,30,VALID,0,
2012-07-29, 01:55:04,VALID,1009.82,VALID,0,VALID,103.947,VALID,0,VALID,24.1227,VALID,30,VALID,0,
2012-07-29, 01:56:04,VALID,1009.8,VALID,0,VALID,104,VALID,0,VALID,24.1032,VALID,30,VALID,0,
2012-07-29, 01:57:04,VALID,1009.8,VALID,0,VALID,104,VALID,0,VALID,24.0837,VALID,30,VALID,0,
2012-07-29, 01:58:04,VALID,1009.8,VALID,0,VALID,104,VALID,0,VALID,24.0643,VALID,30,VALID,0,
2012-07-29, 01:59:04,VALID,1009.78,VALID,0,VALID,104,VALID,0,VALID,24.0643,VALID,30,VALID,0,
2012-07-29, 02:00:04,VALID,1009.77,VALID,0,VALID,104,VALID,0,VALID,24.0235,VALID,30,VALID,0,
2012-07-29, 02:01:04,VALID,1009.77,VALID,0,VALID,104,VALID,0,VALID,24.0253,VALID,30,VALID,0.127344,
2012-07-29, 02:02:04,VALID,1009.8,VALID,0,VALID,104,VALID,0,VALID,24.0235,VALID,30,VALID,0,
2012-07-29, 02:03:04,VALID,1009.78,VALID,0,VALID,104,VALID,0.112112,VALID,24.0448,VALID,30,VALID,0,
2012-07-29, 02:04:04,VALID,1009.8,VALID,0,VALID,104,VALID,0,VALID,24.0837,VALID,30,VALID,0,
2012-07-29, 02:05:04,VALID,1009.8,VALID,0,VALID,104,VALID,0.112112,VALID,24.1032,VALID,30,VALID,0,
2012-07-29, 02:06:04,VALID,1009.79,VALID,0,VALID,104,VALID,0,VALID,24.1227,VALID,30,VALID,0,
2012-07-29, 02:07:04,VALID,1009.76,VALID,0,VALID,104,VALID,0.112112,VALID,24.1209,VALID,30,VALID,0,
2012-07-29, 02:08:04,VALID,1009.76,VALID,0,VALID,104,VALID,0,VALID,24.1209,VALID,30,VALID,0,
2012-07-29, 02:09:04,VALID,1009.74,VALID,0,VALID,103.825,VALID,0,VALID,24.1422,VALID,30,VALID,0.226953,
2012-07-29, 02:10:04,VALID,1009.76,VALID,0,VALID,103.649,VALID,0,VALID,24.1617,VALID,30,VALID,0.519531,
2012-07-29, 02:11:04,VALID,1009.77,VALID,0,VALID,102.955,VALID,0,VALID,24.1793,VALID,30,VALID,0.314844,
2012-07-29, 02:12:04,VALID,1009.75,VALID,0,VALID,102.246,VALID,0,VALID,24.2591,VALID,165,VALID,0.635938,
2012-07-29, 02:13:04,VALID,1009.75,VALID,0,VALID,101.529,VALID,0,VALID,24.3158,VALID,186,VALID,0.228125,
2012-07-29, 02:14:04,VALID,1009.78,VALID,0,VALID,100.759,VALID,0,VALID,24.3547,VALID,150,VALID,0.782031,
2012-07-29, 02:15:04,VALID,1009.78,VALID,0,VALID,99.5695,VALID,0,VALID,24.4345,VALID,154,VALID,0.726563,
2012-07-29, 02:16:04,VALID,1009.78,VALID,0,VALID,96.8699,VALID,0.112112,VALID,24.4911,VALID,160,VALID,0.360547,
2012-07-29, 02:17:04,VALID,1009.76,VALID,0,VALID,94.2162,VALID,0.112112,VALID,24.532,VALID,160,VALID,0.0789063,
2012-07-29, 02:18:04,VALID,1009.76,VALID,0,VALID,93.0647,VALID,0,VALID,24.5515,VALID,160,VALID,0.130859,
2012-07-29, 02:19:04,VALID,1009.76,VALID,0,VALID,90.4262,VALID,0,VALID,24.571,VALID,186,VALID,0.933594,
2012-07-29, 02:20:04,VALID,1009.75,VALID,0,VALID,89.3052,VALID,0,VALID,24.6294,VALID,136,VALID,0.617969,
2012-07-29, 02:21:04,VALID,1009.75,VALID,0,VALID,87.8106,VALID,0,VALID,24.6879,VALID,132,VALID,0.708984,
2012-07-29, 02:22:04,VALID,1009.74,VALID,0,VALID,87.292,VALID,0,VALID,24.7269,VALID,133,VALID,0.615625,
2012-07-29, 02:23:04,VALID,1009.72,VALID,0,VALID,86.7201,VALID,0,VALID,24.7659,VALID,133,VALID,0.343359,
2012-07-29, 02:24:04,VALID,1009.71,VALID,0,VALID,86.3998,VALID,0,VALID,24.725,VALID,133,VALID,0.492578,
2012-07-29, 02:25:04,VALID,1009.71,VALID,0,VALID,86.4379,VALID,0,VALID,24.7269,VALID,133,VALID,0.428906,
2012-07-29, 02:26:04,VALID,1009.69,VALID,0,VALID,86.0719,VALID,0,VALID,24.7055,VALID,133,VALID,0.35625,
2012-07-29, 02:27:04,VALID,1009.67,VALID,0,VALID,85.988,VALID,0,VALID,24.7269,VALID,133,VALID,0.246094,
2012-07-29, 02:28:04,VALID,1009.63,VALID,0,VALID,85.6753,VALID,0,VALID,24.7074,VALID,133,VALID,0.610156,
2012-07-29, 02:29:04,VALID,1009.6,VALID,0,VALID,85.4084,VALID,0.112112,VALID,24.7074,VALID,137,VALID,0.551953,
2012-07-29, 02:30:04,VALID,1009.58,VALID,0,VALID,85.0653,VALID,0.112112,VALID,24.7055,VALID,151,VALID,0.604297,
2012-07-29, 02:31:04,VALID,1009.54,VALID,0,VALID,84.6992,VALID,0,VALID,24.7269,VALID,151,VALID,0.784375,
2012-07-29, 02:32:04,VALID,1009.55,VALID,0,VALID,84.5925,VALID,0.112112,VALID,24.7055,VALID,155,VALID,0.618359,
2012-07-29, 02:33:04,VALID,1009.53,VALID,0,VALID,84.318,VALID,0,VALID,24.7269,VALID,157,VALID,0.6875,
2012-07-29, 02:34:04,VALID,1009.52,VALID,0,VALID,83.8223,VALID,0,VALID,24.7854,VALID,165,VALID,1.02031,
2012-07-29, 02:35:04,VALID,1009.52,VALID,0,VALID,83.685,VALID,0,VALID,24.7854,VALID,166,VALID,0.839063,
2012-07-29, 02:36:04,VALID,1009.53,VALID,0,VALID,83.4791,VALID,0,VALID,24.7854,VALID,172,VALID,0.741406,
2012-07-29, 02:37:04,VALID,1009.55,VALID,0,VALID,83.1512,VALID,0.112112,VALID,24.8049,VALID,181,VALID,1.61328,
2012-07-29, 02:38:04,VALID,1009.53,VALID,0,VALID,83.1131,VALID,0,VALID,24.8244,VALID,181,VALID,0.869531,
2012-07-29, 02:39:04,VALID,1009.55,VALID,0,VALID,82.9301,VALID,0.112112,VALID,24.8244,VALID,192,VALID,1.01602,
2012-07-29, 02:40:04,VALID,1009.51,VALID,0,VALID,82.9148,VALID,0,VALID,24.8225,VALID,190,VALID,0.7375,
2012-07-29, 02:41:04,VALID,1009.56,VALID,0,VALID,82.7852,VALID,0.112112,VALID,24.842,VALID,167,VALID,1.18047,
2012-07-29, 02:42:04,VALID,1009.55,VALID,0,VALID,82.8081,VALID,0,VALID,24.8225,VALID,169,VALID,0.859766,
2012-07-29, 02:43:04,VALID,1009.56,VALID,0,VALID,82.7699,VALID,0,VALID,24.8225,VALID,177,VALID,0.815234,
2012-07-29, 02:44:04,VALID,1009.55,VALID,0,VALID,82.7165,VALID,0.112112,VALID,24.8438,VALID,190,VALID,1.34453,
2012-07-29, 02:45:04,VALID,1009.54,VALID,0,VALID,82.7089,VALID,0,VALID,24.8438,VALID,185,VALID,0.967969,
2012-07-29, 02:46:04,VALID,1009.55,VALID,0,VALID,82.6327,VALID,0,VALID,24.8225,VALID,190,VALID,1.34492,
2012-07-29, 02:47:04,VALID,1009.58,VALID,0,VALID,82.8462,VALID,0,VALID,24.8438,VALID,178,VALID,0.6125,
2012-07-29, 02:48:04,VALID,1009.58,VALID,0,VALID,82.9682,VALID,0,VALID,24.8049,VALID,179,VALID,0.694922,
2012-07-29, 02:49:04,VALID,1009.6,VALID,0,VALID,82.9453,VALID,0,VALID,24.7854,VALID,180,VALID,0.871484,
2012-07-29, 02:50:04,VALID,1009.59,VALID,0,VALID,82.9835,VALID,0,VALID,24.7854,VALID,168,VALID,0.489844,
2012-07-29, 02:51:04,VALID,1009.63,VALID,0,VALID,83.0826,VALID,0,VALID,24.764,VALID,158,VALID,0.876562,
2012-07-29, 02:52:04,VALID,1009.62,VALID,0,VALID,83.0902,VALID,0,VALID,24.7659,VALID,152,VALID,0.500781,
2012-07-29, 02:53:04,VALID,1009.63,VALID,0,VALID,83.1055,VALID,0,VALID,24.7445,VALID,154,VALID,0.691016,
2012-07-29, 02:54:04,VALID,1009.61,VALID,0,VALID,83.3571,VALID,0,VALID,24.7464,VALID,156,VALID,0.366797,
2012-07-29, 02:55:04,VALID,1009.6,VALID,0,VALID,83.4639,VALID,0,VALID,24.6879,VALID,156,VALID,0.886719,
2012-07-29, 02:56:04,VALID,1009.61,VALID,0,VALID,83.6545,VALID,0,VALID,24.6879,VALID,141,VALID,0.684375,
2012-07-29, 02:57:04,VALID,1009.59,VALID,0,VALID,83.8985,VALID,0,VALID,24.6489,VALID,140,VALID,0.460938,
2012-07-29, 02:58:04,VALID,1009.6,VALID,0,VALID,84.0892,VALID,0,VALID,24.6294,VALID,158,VALID,0.646484,
2012-07-29, 02:59:04,VALID,1009.58,VALID,0,VALID,84.1349,VALID,0,VALID,24.6099,VALID,169,VALID,0.928516,
2012-07-29, 03:00:04,VALID,1009.59,VALID,0,VALID,84.1578,VALID,0,VALID,24.6081,VALID,188,VALID,0.601563,
2012-07-29, 03:01:04,VALID,1009.58,VALID,0,VALID,84.2417,VALID,0,VALID,24.5886,VALID,205,VALID,0.607422,
2012-07-29, 03:02:04,VALID,1009.61,VALID,0,VALID,83.9748,VALID,0,VALID,24.6294,VALID,176,VALID,1.08828,
2012-07-29, 03:03:04,VALID,1009.57,VALID,0,VALID,84.1044,VALID,0,VALID,24.6294,VALID,174,VALID,0.472266,
2012-07-29, 03:04:04,VALID,1009.56,VALID,0,VALID,84.1959,VALID,0,VALID,24.6294,VALID,165,VALID,0.780859,
2012-07-29, 03:05:04,VALID,1009.57,VALID,0,VALID,84.1121,VALID,0,VALID,24.6099,VALID,174,VALID,1.05313,
2012-07-29, 03:06:04,VALID,1009.54,VALID,0,VALID,84.1578,VALID,0,VALID,24.6294,VALID,162,VALID,0.773047,
2012-07-29, 03:07:04,VALID,1009.55,VALID,0,VALID,84.2264,VALID,0,VALID,24.6294,VALID,172,VALID,0.655469,
2012-07-29, 03:08:04,VALID,1009.5,VALID,0,VALID,84.44,VALID,0,VALID,24.5905,VALID,161,VALID,0.299609,
2012-07-29, 03:09:04,VALID,1009.5,VALID,0,VALID,84.6611,VALID,0,VALID,24.5515,VALID,162,VALID,0.663281,
2012-07-29, 03:10:04,VALID,1009.51,VALID,0,VALID,84.8213,VALID,0,VALID,24.532,VALID,182,VALID,0.954297,
2012-07-29, 03:11:04,VALID,1009.51,VALID,0,VALID,84.8594,VALID,0,VALID,24.532,VALID,177,VALID,1.72695,
2012-07-29, 03:12:04,VALID,1009.5,VALID,0,VALID,84.8899,VALID,0,VALID,24.5515,VALID,151,VALID,1.18789,
2012-07-29, 03:13:04,VALID,1009.53,VALID,0,VALID,84.8213,VALID,0,VALID,24.5515,VALID,161,VALID,1.14297,
2012-07-29, 03:14:04,VALID,1009.53,VALID,0,VALID,84.7908,VALID,0,VALID,24.571,VALID,133,VALID,1.1293,
2012-07-29, 03:15:04,VALID,1009.55,VALID,0,VALID,84.7221,VALID,0,VALID,24.571,VALID,147,VALID,1.20352,
2012-07-29, 03:16:04,VALID,1009.54,VALID,0,VALID,84.8823,VALID,0,VALID,24.571,VALID,148,VALID,0.88125,
2012-07-29, 03:17:04,VALID,1009.58,VALID,0,VALID,84.501,VALID,0,VALID,24.5905,VALID,179,VALID,2.19375,
2012-07-29, 03:18:04,VALID,1009.59,VALID,0,VALID,84.6077,VALID,0,VALID,24.6099,VALID,125,VALID,0.941406,
2012-07-29, 03:19:04,VALID,1009.59,VALID,0,VALID,84.5391,VALID,0,VALID,24.5691,VALID,167,VALID,1.48828,
2012-07-29, 03:20:04,VALID,1009.6,VALID,0,VALID,84.7526,VALID,0,VALID,24.571,VALID,144,VALID,0.969141,
2012-07-29, 03:21:04,VALID,1009.64,VALID,0,VALID,84.7908,VALID,0.112112,VALID,24.571,VALID,148,VALID,1.04531,
2012-07-29, 03:22:04,VALID,1009.64,VALID,0,VALID,84.8365,VALID,0,VALID,24.5496,VALID,145,VALID,1.03437,
2012-07-29, 03:23:04,VALID,1009.62,VALID,0,VALID,84.8746,VALID,0,VALID,24.571,VALID,148,VALID,0.670313,
2012-07-29, 03:24:04,VALID,1009.61,VALID,0,VALID,85.0424,VALID,0,VALID,24.532,VALID,140,VALID,0.776563,
2012-07-29, 03:25:04,VALID,1009.62,VALID,0,VALID,85.1339,VALID,0,VALID,24.532,VALID,160,VALID,1.0082,
2012-07-29, 03:26:04,VALID,1009.66,VALID,0,VALID,85.0958,VALID,0,VALID,24.493,VALID,167,VALID,1.17461,
2012-07-29, 03:27:04,VALID,1009.65,VALID,0,VALID,85.0348,VALID,0,VALID,24.5125,VALID,152,VALID,1.15625,
2012-07-29, 03:28:04,VALID,1009.67,VALID,0,VALID,85.2025,VALID,0,VALID,24.532,VALID,177,VALID,0.827344,
2012-07-29, 03:29:04,VALID,1009.64,VALID,0,VALID,85.1187,VALID,0,VALID,24.4911,VALID,154,VALID,0.362891,
2012-07-29, 03:30:04,VALID,1009.63,VALID,0,VALID,85.0882,VALID,0,VALID,24.4911,VALID,155,VALID,0.606641,
2012-07-29, 03:31:04,VALID,1009.62,VALID,0,VALID,85.1644,VALID,0,VALID,24.4717,VALID,163,VALID,0.514453,
2012-07-29, 03:32:04,VALID,1009.63,VALID,0,VALID,85.3627,VALID,0,VALID,24.4735,VALID,162,VALID,0.659766,
2012-07-29, 03:33:04,VALID,1009.64,VALID,0,VALID,85.3322,VALID,0,VALID,24.4327,VALID,150,VALID,1.30586,
2012-07-29, 03:34:04,VALID,1009.61,VALID,0,VALID,85.5228,VALID,0,VALID,24.454,VALID,147,VALID,0.2125,
2012-07-29, 03:35:04,VALID,1009.63,VALID,0,VALID,85.4694,VALID,0,VALID,24.454,VALID,145,VALID,0.64375,
2012-07-29, 03:36:04,VALID,1009.63,VALID,0,VALID,85.6067,VALID,0,VALID,24.4327,VALID,150,VALID,0.796484,
2012-07-29, 03:37:04,VALID,1009.64,VALID,0,VALID,85.7897,VALID,0,VALID,24.4345,VALID,146,VALID,0.899219,
2012-07-29, 03:38:04,VALID,1009.61,VALID,0,VALID,85.9041,VALID,0,VALID,24.4345,VALID,144,VALID,0.416797,
2012-07-29, 03:39:04,VALID,1009.64,VALID,0,VALID,85.8812,VALID,0,VALID,24.415,VALID,164,VALID,0.968359,
2012-07-29, 03:40:04,VALID,1009.61,VALID,0,VALID,86.2473,VALID,0,VALID,24.4132,VALID,117,VALID,0.895703,
2012-07-29, 03:41:04,VALID,1009.62,VALID,0,VALID,86.4379,VALID,0,VALID,24.3956,VALID,114,VALID,0.298828,
2012-07-29, 03:42:04,VALID,1009.63,VALID,0,VALID,86.5065,VALID,0,VALID,24.3956,VALID,123,VALID,0.846875,
2012-07-29, 03:43:04,VALID,1009.66,VALID,0,VALID,86.5752,VALID,0,VALID,24.3742,VALID,148,VALID,0.56875,
2012-07-29, 03:44:04,VALID,1009.67,VALID,0,VALID,86.5142,VALID,0,VALID,24.3761,VALID,157,VALID,0.625391,
2012-07-29, 03:45:04,VALID,1009.7,VALID,0,VALID,86.8802,VALID,0,VALID,24.3547,VALID,155,VALID,0.325,
2012-07-29, 03:46:04,VALID,1009.68,VALID,0,VALID,87.2157,VALID,0.112112,VALID,24.3566,VALID,152,VALID,0.526953,